Location: Ahstedt
(52.2048°N, 10.1060°E)
Time: 23:29:18
(UTC+00:00)

Timation 2 Rocket - Pass Details

Date: 18 January 2026
Orbit: 906 x 1072 km, 70.0° (Epoch: 7 February)

Event Time Altitude Azimuth Distance (km) Brightness Sun altitude
Rises 04:43:15 0° 204° (SSW) 3,775 6.9 -23.2°
Reaches altitude 10° 04:45:53 10° 202° (SSW) 2,804 6.2 -22.8°
Maximum altitude 04:52:24 75° 119° (ESE) 1,025 4.2 -21.8°
Drops below altitude 10° 04:58:41 10° 35° (NE) 2,703 6.7 -20.8°
Sets 05:01:11 0° 34° (NE) 3,630 7.3 -20.4°
